Location: Bemmer
(51.5498°N, 5.6249°E)
Time: 10:44:54
(UTC+00:00)

Cosmos 2278 Rocket - Pass Details

Date: 03 March 2021
Orbit: 841 x 845 km, 71.0° (Epoch: 16 April)

Event Time Altitude Azimuth Distance (km) Brightness Sun altitude
Rises 18:38:15 0° 330° (NNW) 3,417 5.9 -12.7°
Reaches altitude 10° 18:41:03 10° 342° (NNW) 2,478 5.0 -13.1°
Maximum altitude 18:45:58 29° 42° (NE) 1,512 3.2 -13.9°
Enters shadow 18:48:40 20° 84° (E) 1,859 3.4 -14.3°
